Weather History for Crane Lake, MN

Change the Weather History Date:

Wednesday, April 23, 2014

  Actual Average Record
Temperature  
Mean Temperature 37 °F -  
Max Temperature 57 °F 52 °F 73 °F (2006)
Min Temperature 17 °F 27 °F 17 °F (2014)
Degree Days  
Heating Degree Days 28    
Moisture  
Dew Point 19 °F    
Average Humidity 52    
Maximum Humidity 93    
Minimum Humidity 23    
Precipitation  
Precipitation 0.00 in - - ()
Sea Level Pressure  
Sea Level Pressure 30.07 in    
Wind  
Wind Speed 2 mph (SE)    
Max Wind Speed 10 mph    
Max Gust Speed -    
Visibility 10 miles    
Events      
Averages and records for this station are not official NWS values.
T = Trace of Precipitation, MM = Missing Value Source: NWS Daily Summary

Daily Weather History Graph

Daily Weather History Graph

Search for Another Location

Airport:

Trip Planner

Search our weather history database for the weather conditions in past years. The results will help you decide how hot, cold, wet, or windy it might be!

Date:

Astronomy

Apr. 23, 2014 Rise Set
Actual Time 6:04 AM CDT 8:12 PM CDT
Civil Twilight 5:31 AM CDT 8:46 PM CDT
Nautical Twilight 4:49 AM CDT 9:28 PM CDT
Astronomical Twilight 4:02 AM CDT 10:16 PM CDT
Moon 3:05 AM CDT (4/23) 1:54 PM CDT (4/23)
Length of Visible Light 15h 15m
Length of Day
14h 07m
Waning Crescent, 34% of the Moon is Illuminated
Apr 23
Waning Crescent
Apr 29
New
May 6
First Quarter
May 14
Full
May 21
Last Quarter

Hourly Weather History & Observations

Time (CDT) Temp. Windchill Dew Point Humidity Pressure Visibility Wind Dir Wind Speed Gust Speed Precip Events Conditions
12:12 AM 23.0 °F - 17.6 °F 80% 30.12 in 10.0 mi Calm Calm - N/A   Clear
12:31 AM 23.0 °F - 17.6 °F 80% 30.12 in 10.0 mi Calm Calm - N/A   Clear
12:52 AM 21.2 °F - 17.6 °F 86% 30.13 in 10.0 mi Calm Calm - N/A   Clear
1:12 AM 21.2 °F - 17.6 °F 86% 30.13 in 10.0 mi Calm Calm - N/A   Clear
1:31 AM 21.2 °F - 17.6 °F 86% 30.13 in 10.0 mi Calm Calm - N/A   Clear
1:52 AM 21.2 °F - 17.6 °F 86% 30.13 in 10.0 mi Calm Calm - N/A   Clear
2:13 AM 21.2 °F - 17.6 °F 86% 30.13 in 10.0 mi Calm Calm - N/A   Clear
2:31 AM 19.4 °F - 15.8 °F 86% 30.13 in 10.0 mi Calm Calm - N/A   Clear
3:13 AM 19.4 °F - 15.8 °F 86% 30.13 in 10.0 mi Calm Calm - N/A   Clear
3:32 AM 19.4 °F - 15.8 °F 86% 30.12 in 10.0 mi Calm Calm - N/A   Clear
3:52 AM 19.4 °F - 15.8 °F 86% 30.13 in 10.0 mi Calm Calm - N/A   Clear
4:12 AM 19.4 °F - 15.8 °F 86% 30.13 in 10.0 mi Calm Calm - N/A   Clear
4:32 AM 19.4 °F - 15.8 °F 86% 30.13 in 10.0 mi Calm Calm - N/A   Clear
4:51 AM 19.4 °F - 15.8 °F 86% 30.13 in 10.0 mi Calm Calm - N/A   Clear
5:12 AM 17.6 °F - 15.8 °F 93% 30.13 in 10.0 mi Calm Calm - N/A   Clear
5:31 AM 17.6 °F - 15.8 °F 93% 30.13 in 10.0 mi Calm Calm - N/A   Clear
5:52 AM 17.6 °F - 15.8 °F 93% 30.13 in 10.0 mi Calm Calm - N/A   Clear
6:11 AM 17.6 °F - 15.8 °F 93% 30.13 in 10.0 mi Calm Calm - N/A   Clear
6:32 AM 17.6 °F - 15.8 °F 93% 30.14 in 10.0 mi Calm Calm - N/A   Clear
6:52 AM 19.4 °F - 15.8 °F 86% 30.13 in 10.0 mi Calm Calm - N/A   Clear
7:11 AM 19.4 °F - 17.6 °F 93% 30.13 in 10.0 mi Calm Calm - N/A   Clear
7:32 AM 24.8 °F - 21.2 °F 86% 30.13 in 10.0 mi Calm Calm - N/A   Clear
7:52 AM 26.6 °F - 24.8 °F 93% 30.13 in 10.0 mi Calm Calm - N/A   Clear
8:12 AM 30.2 °F - 26.6 °F 86% 30.13 in 10.0 mi Calm Calm - N/A   Clear
8:32 AM 33.8 °F - 28.4 °F 81% 30.13 in 10.0 mi Calm Calm - N/A   Clear
8:52 AM 37.4 °F - 30.2 °F 75% 30.12 in 10.0 mi Calm Calm - N/A   Clear
9:11 AM 41.0 °F - 33.8 °F 76% 30.12 in 10.0 mi Calm Calm - N/A   Clear
9:32 AM 46.4 °F 45.2 °F 28.4 °F 50% 30.11 in 10.0 mi SSE 3.5 mph - N/A   Clear
9:52 AM 48.2 °F - 24.8 °F 40% 30.10 in 10.0 mi SSE 3.5 mph - N/A   Clear
10:12 AM 50.0 °F - 21.2 °F 32% 30.10 in 10.0 mi SSE 5.8 mph - N/A   Clear
10:32 AM 51.8 °F - 21.2 °F 30% 30.10 in 10.0 mi South 10.4 mph - N/A   Clear
10:52 AM 51.8 °F - 19.4 °F 28% 30.10 in 10.0 mi SE 8.1 mph - N/A   Clear
11:12 AM 51.8 °F - 21.2 °F 30% 30.10 in 10.0 mi ESE 4.6 mph - N/A   Clear
11:32 AM 51.8 °F - 19.4 °F 28% 30.10 in 10.0 mi SSE 4.6 mph - N/A   Clear
11:52 AM 53.6 °F - 19.4 °F 26% 30.10 in 10.0 mi South 6.9 mph - N/A   Clear
12:11 PM 53.6 °F - 19.4 °F 26% 30.10 in 10.0 mi SE 5.8 mph - N/A   Clear
12:31 PM 53.6 °F - 21.2 °F 28% 30.09 in 10.0 mi ESE 4.6 mph - N/A   Clear
12:51 PM 53.6 °F - 19.4 °F 26% 30.08 in 10.0 mi ESE 3.5 mph - N/A   Clear
1:11 PM 53.6 °F - 21.2 °F 28% 30.07 in 10.0 mi Calm Calm - N/A   Clear
1:32 PM 55.4 °F - 21.2 °F 26% 30.07 in 10.0 mi SSE 4.6 mph - N/A   Clear
1:52 PM 55.4 °F - 21.2 °F 26% 30.06 in 10.0 mi South 8.1 mph - N/A   Clear
2:11 PM 55.4 °F - 19.4 °F 25% 30.06 in 10.0 mi SSE 6.9 mph - N/A   Clear
2:31 PM 55.4 °F - 19.4 °F 25% 30.05 in 10.0 mi SSE 3.5 mph - N/A   Clear
2:51 PM 55.4 °F - 19.4 °F 25% 30.05 in 10.0 mi South 5.8 mph - N/A   Clear
3:11 PM 55.4 °F - 21.2 °F 26% 30.04 in 10.0 mi South 5.8 mph - N/A   Clear
3:32 PM 55.4 °F - 21.2 °F 26% 30.04 in 10.0 mi SSE 6.9 mph - N/A   Clear
3:51 PM 55.4 °F - 19.4 °F 25% 30.03 in 10.0 mi SSE 8.1 mph - N/A   Clear
4:11 PM 55.4 °F - 19.4 °F 25% 30.02 in 10.0 mi SE 4.6 mph - N/A   Clear
4:32 PM 57.2 °F - 19.4 °F 23% 30.01 in 10.0 mi ESE 3.5 mph - N/A   Clear
4:52 PM 57.2 °F - 19.4 °F 23% 30.00 in 10.0 mi SSE 3.5 mph - N/A   Clear
5:11 PM 55.4 °F - 19.4 °F 25% 30.00 in 10.0 mi East 5.8 mph - N/A   Clear
5:32 PM 55.4 °F - 17.6 °F 23% 29.99 in 10.0 mi SSE 8.1 mph - N/A   Clear
5:52 PM 55.4 °F - 19.4 °F 25% 29.99 in 10.0 mi East 4.6 mph - N/A   Clear
6:12 PM 55.4 °F - 17.6 °F 23% 30.00 in 10.0 mi SSE 5.8 mph - N/A   Clear
6:32 PM 53.6 °F - 17.6 °F 24% 30.00 in 10.0 mi SE 3.5 mph - N/A   Clear
6:52 PM 50.0 °F - 17.6 °F 28% 30.00 in 10.0 mi SE 3.5 mph - N/A   Clear
7:12 PM 48.2 °F - 17.6 °F 30% 30.00 in 10.0 mi Calm Calm - N/A   Clear
7:32 PM 46.4 °F - 17.6 °F 32% 29.99 in 10.0 mi Calm Calm - N/A   Clear
7:52 PM 46.4 °F - 17.6 °F 32% 29.99 in 10.0 mi Calm Calm - N/A   Clear
8:12 PM 44.6 °F - 17.6 °F 34% 29.99 in 10.0 mi Calm Calm - N/A   Clear
8:31 PM 42.8 °F - 17.6 °F 36% 30.00 in 10.0 mi Calm Calm - N/A   Clear
8:51 PM 42.8 °F - 17.6 °F 36% 30.00 in 10.0 mi Calm Calm - N/A   Clear
9:12 PM 42.8 °F - 17.6 °F 36% 30.00 in 10.0 mi Calm Calm - N/A   Scattered Clouds
9:31 PM 42.8 °F - 19.4 °F 39% 30.01 in 10.0 mi Calm Calm - N/A   Scattered Clouds
9:51 PM 42.8 °F - 17.6 °F 36% 30.01 in 10.0 mi Calm Calm - N/A   Mostly Cloudy
10:11 PM 41.0 °F - 19.4 °F 42% 30.02 in 10.0 mi Calm Calm - N/A   Overcast
10:32 PM 41.0 °F - 19.4 °F 42% 30.02 in 10.0 mi Calm Calm - N/A   Overcast
10:52 PM 41.0 °F 38.0 °F 19.4 °F 42% 30.03 in 10.0 mi SSE 4.6 mph - N/A   Mostly Cloudy
11:11 PM 41.0 °F - 19.4 °F 42% 30.03 in 10.0 mi Calm Calm - N/A   Mostly Cloudy
11:32 PM 39.2 °F - 19.4 °F 45% 30.03 in 10.0 mi Calm Calm - N/A   Overcast
11:52 PM 39.2 °F 37.0 °F 19.4 °F 45% 30.03 in 10.0 mi SSE 3.5 mph - N/A   Overcast